Location: Gros Bout
(46.6096°N, 0.5894°E)
Time: 05:37:00
(UTC+00:00)

Daily predictions for brighter satellites

Satellite Brightness Start Highest point End
(mag) Time Altitude Azimuth Time Altitude Azimuth Time Altitude Azimuth
ACS3 Solar Sail 4.3 02:23:08 10° NNE 02:24:02 14° NE 02:24:02 14° NE
CZ-2C R/B 4.4 03:18:35 10° NE 03:21:32 26° ENE 03:21:32 26° ENE
USA 267 4.0 03:24:54 10° ENE 03:31:07 44° SE 03:31:27 44° SE
Cosmos 2278 Rocket 4.3 03:37:43 16° SSE 03:37:43 16° SSE 03:38:49 10° SSE
Cosmos 2237 Rocket 3.2 03:37:34 42° ENE 03:37:34 42° ENE 03:41:36 10° NE
Cosmos 1943 Rocket 4.5 03:41:44 13° SSE 03:41:44 13° SSE 03:42:15 10° SSE
ARGOS 4.3 03:36:35 10° NNE 03:40:21 40° NE 03:40:21 40° NE
CENTAUR R/B 4.3 03:39:59 26° NNW 03:43:32 37° NNE 03:51:49 10° E
Cosmos 2369 Rocket 4.4 03:41:31 14° N 03:44:27 20° NE 03:48:34 10° E
SJ 16-02 3.3 03:51:39 25° ENE 03:51:39 25° ENE 03:54:56 10° ESE
ADEOS Rocket 3.8 03:50:57 10° N 03:55:46 47° NNW 03:55:46 47° NNW
USA 234 3.5 04:01:45 10° ESE 04:08:11 62° NNE 04:09:48 49° NNW
ACS3 Solar Sail 3.2 04:05:45 10° N 04:08:08 24° N 04:08:08 24° N
Cosmos 371 Rocket 4.5 04:11:29 31° NNE 04:13:05 40° ENE 04:17:38 10° SE
CZ-3 R/B 4.2 04:06:00 18° SW 04:14:47 26° S 04:21:30 10° SE
Cosmos 1864 Rocket 4.3 04:10:29 10° N 04:16:48 78° W 04:23:08 10° S
Cosmos 2292 Rocket 4.2 04:16:36 45° S 04:18:14 77° E 04:24:34 10° N
Meteor 1-24 Rocket 4.3 04:23:19 42° N 04:23:19 42° N 04:26:59 10° N
Gbstr 26 Del rocket 3.9 04:22:01 49° N 04:22:01 49° N 04:27:22 10° ENE
Lacrosse 5 rocket 3.6 04:23:30 14° NE 04:23:30 14° NE 04:24:34 10° NE
Cosmos 2061 Rocket 4.2 04:16:28 10° N 04:22:39 68° E 04:28:48 10° SSE
Cosmos 1656 Rocket 4.3 04:20:09 28° N 04:22:59 55° ENE 04:28:33 10° SE
Cosmos 2219 Rocket 4.3 04:26:24 13° N 04:26:24 13° N 04:27:24 10° N
Cosmos 1725 Rocket 3.9 04:24:43 10° NNW 04:31:01 68° W 04:37:14 10° S
Cosmos 1869 4.3 04:31:07 38° ENE 04:31:12 38° ENE 04:34:29 10° SSE
Cosmos 2233 Rocket 3.9 04:26:57 10° N 04:33:17 88° ENE 04:39:33 10° S
Meteor 2-21 Rocket 4.4 04:36:39 56° W 04:37:07 58° WNW 04:43:06 10° N
NOSS 3-1 (C) 4.4 04:37:44 26° NNW 04:37:44 26° NNW 04:42:18 10° NNE
Helios 1A Rocket 4.3 04:34:20 10° SE 04:37:17 29° ENE 04:38:59 19° NNE
Cosmos 2251 Rocket 3.4 04:36:56 66° WNW 04:37:29 72° WSW 04:42:48 10° SSE
Cosmos 1420 Rocket 3.8 04:37:57 57° SW 04:39:00 77° WNW 04:44:20 10° NNE
Cosmos 1624 Rocket 4.3 04:34:05 10° S 04:39:11 65° ESE 04:44:20 10° NNE
SL-16 R/B 3.1 04:34:02 10° S 04:39:28 49° ESE 04:44:56 10° NE
PAYLOAD A 4.0 04:38:44 10° N 04:44:03 66° WNW 04:45:44 42° SW
SL-08 RB Rocket 4.4 04:40:59 10° N 04:44:00 39° NNW 04:44:00 39° NNW
Cosmos 1812 3.7 04:46:27 32° ENE 04:46:40 32° ENE 04:49:18 10° SE
NOSS 0 Rocket 4.4 04:48:18 38° NW 04:48:18 38° NW 04:53:55 10° NNE
SL-08 R/B 4.4 04:45:52 10° NNW 04:51:53 58° W 04:57:57 10° S
Cosmos 1802 Rocket 4.3 04:46:33 10° NNW 04:52:26 43° W 04:58:14 10° SSW
CZ-2C R/B 3.0 04:56:28 10° N 05:00:45 38° NW 05:00:45 38° NW
COSMOS 2428 4.2 05:03:07 20° NNW 05:03:07 20° NNW 05:06:23 10° N
Meteor 2-5 Rocket 4.2 05:02:08 37° WNW 05:02:16 37° WNW 05:07:37 10° N
Cosmos 1939 Rocket 3.5 04:58:32 10° N 05:01:05 36° NNW 05:01:05 36° NNW
Cosmos 1980 4.3 05:04:29 34° WNW 05:04:50 35° NW 05:10:01 10° NNE
SJ-11-01 4.1 05:02:49 10° N 05:07:32 77° WNW 05:12:13 10° SSW
USA 229 DEB 3.8 05:04:57 10° SSW 05:10:43 64° ESE 05:17:13 10° NE
USA 229 3.9 05:05:10 10° SSW 05:10:55 63° ESE 05:17:25 10° NE
USA 267 3.2 05:07:51 10° NE 05:14:21 69° NNW 05:18:49 22° WSW
Cosmos 1190 Rocket 4.4 05:14:42 31° WNW 05:16:22 39° WSW 05:21:11 10° S
Cosmos 2278 Rocket 4.2 05:19:37 11° SW 05:19:37 11° SW 05:19:55 10° SW
Cosmos 676 Rocket 4.0 05:14:56 17° NNW 05:18:51 61° WSW 05:23:56 10° S
Cosmos 2237 Rocket 3.0 05:19:25 28° WNW 05:20:27 29° NW 05:25:22 10° N
ARGOS 4.1 05:17:26 10° N 05:21:48 26° WNW 05:21:49 26° WNW
Cosmos 2297 3.7 05:18:06 10° NNW 05:23:48 82° ENE 05:29:25 10° SSE
Okean 2 Rocket 3.9 05:19:49 10° N 05:24:06 51° ENE 05:28:21 10° SSE
Aureole 3 4.1 05:18:59 10° SSW 05:24:48 58° W 05:29:40 10° N
NOSS 3-1 (A) 4.1 05:24:50 23° NW 05:26:24 27° NNW 05:31:33 10° NNE
Cosmos 2056 Rocket 3.7 05:22:43 10° SW 05:27:58 50° WNW 05:33:13 10° NNE
Cosmos 2369 Rocket 2.2 05:23:32 10° NNW 05:29:16 89° WSW 05:34:58 10° SSE
SJ 16-02 1.9 05:28:16 28° WNW 05:29:32 34° WSW 05:33:24 10° SSW
SKYMED 2 3.6 05:25:26 10° S 05:29:41 56° W 05:33:59 10° NNW
Cosmos 1943 4.4 05:25:06 10° S 05:30:23 45° ESE 05:35:43 10° NE
Cosmos 1513 Rocket 4.5 05:25:11 10° N 05:31:37 80° W 05:37:53 10° S
ATLAS 3B R/B 3.0 05:24:26 10° SW 05:31:59 88° SE 05:39:55 10° NE
COSMO-SKYMED 1 2.3 05:30:54 10° S 05:35:00 68° W 05:39:07 10° NNW
CENTAUR R/B 3.4 05:27:05 11° NW 05:35:12 89° SW 05:44:41 10° SE
IRS-1D 3.5 05:33:56 10° N 05:38:44 52° WNW 05:43:28 10° SW
USA 306 3.2 05:41:01 25° WNW 05:42:14 34° NNW 05:45:47 10° NE
BREEZE-M DEB (TANK) 3.3 05:40:36 10° SW 05:42:59 37° SSE 05:47:02 10° E
BREEZE-M DEB (TANK) 4.1 05:34:53 17° W 05:43:51 85° S 05:47:49 10° E
Cosmos 1025 Rocket 3.4 05:39:53 10° S 05:44:12 70° E 05:48:33 10° NNE
Cosmos 1674 Rocket 3.5 05:44:50 10° SSW 05:49:14 75° W 05:53:41 10° N
USA 234 3.6 05:44:58 10° SSE 05:51:19 51° SW 05:57:09 13° WNW
Cosmos 968 Rocket 3.5 05:46:20 10° NNW 05:51:32 64° WSW 05:56:42 10° S
Cosmos 371 Rocket 4.3 05:50:01 14° NW 05:53:07 27° W 05:57:07 10° SSW
Cosmos 1741 Rocket 4.0 05:49:16 10° NNW 05:54:36 81° WSW 05:59:53 10° SSE
Meteor 1-21 Rocket 4.4 05:50:33 10° SSW 05:56:07 52° WNW 06:01:38 10° N
CZ-4 R/B 4.3 05:53:30 10° N 05:57:57 37° WNW 06:02:18 10° SW
Cosmos 1400 Rocket 2.9 05:55:06 10° NNW 05:58:39 43° W 06:02:07 10° SSW
Cosmos 2221 Rocket 3.6 05:54:55 10° S 05:59:26 90° W 06:04:00 10° N
Cosmos 1484 Rocket 2.4 05:56:15 10° N 05:59:47 69° WNW 06:03:16 10° SSW
Lacrosse 5 rocket 1.5 05:57:09 13° NW 06:00:02 46° NNE 06:03:13 10° ESE
Lacrosse 4 Rocket 2.7 05:59:04 10° NNW 06:02:44 34° NE 06:06:19 10° ESE
Cosmos 1110 Rocket 4.0 05:58:29 10° SSW 06:03:43 63° WNW 06:09:00 10° NNE
Cosmos 2151 Rocket 3.9 06:02:10 10° NNW 06:06:28 45° W 06:10:42 10° SSW
Cosmos 1455 Rocket 3.8 06:02:34 10° N 06:06:52 57° ENE 06:11:09 10° SSE
Thor Agena Rocket 4.0 06:03:39 10° NNE 06:08:51 68° ESE 06:13:56 10° S
Gbstr 26 Del rocket 4.0 06:04:03 12° WNW 06:08:54 62° NNE 06:15:22 10° E
Helios 1A Rocket 3.9 06:07:36 10° SW 06:10:01 18° W 06:12:24 10° NW
Meteor 2-17 Rocket 4.4 06:04:18 10° SSW 06:10:21 70° W 06:16:28 10° N
Sich 1 Rocket 3.7 06:09:19 10° NNW 06:13:47 59° W 06:18:10 10° S
Cosmos 1818 4.4 06:08:54 10° SSW 06:14:11 56° ESE 06:19:31 10° NE
Cosmos 1378 Rocket 4.4 06:13:26 10° SW 06:17:07 28° WNW 06:20:49 10° NNW
Cosmos 1812 4.1 06:18:19 10° WNW 06:18:47 10° W 06:19:18 10° W
Cosmos 332 Rocket 4.1 06:17:28 10° NNW 06:22:05 48° WSW 06:26:38 10° S
SL-16 R/B 2.9 06:18:45 10° WSW 06:23:47 32° NW 06:28:51 10° NNE
Okean 1 Rocket 3.3 06:20:01 10° NNW 06:24:08 45° W 06:28:13 10° SSW
NOSS 2-2 (C) 3.9 06:26:13 10° NW 06:30:10 58° SW 06:35:38 10° SSE
Cosmos 1464 Rocket 4.4 06:24:41 10° NNW 06:30:22 41° W 06:36:01 10° SSW
Cosmos 1634 Rocket 4.2 06:25:34 10° N 06:31:48 80° E 06:37:57 10° SSE
